Weather in Reshetylivka

Ukraine / Poltava Region     49˚33′30″N   34˚04′20″E
temp.,
°C
wind,
m/s
gust,
m/s
humid.,
%
clouds,
%
prec.,
mm/h
press.,
hPa
HPBL,
m
1 december, tue
tue123:00+4˚ene2379100 0.0 1025109
02:00+4˚e2583100 0.0 1025297
05:00+4˚e3683100 0.0 1025419
08:00+3˚ese5875100 0.0 1026546
11:00+3˚e5771100 0.0 1026639
14:00+3˚e6871100 0.0 1026686
17:00+2˚e5872100 0.0 1026683
20:00+2˚e6977100 0.0 1027705
2 december, wed
wed223:00+1˚e61090100 0.1 1027572
02:00e61091100 0.1 1028611
05:00e5989100 0.1 1027540
08:00−1˚e5992100 0.3 1028503
11:00e5887100 0.4 1028527
14:00e5895100 0.7 1027468
17:00e5897100 0.6 1027450
20:00e4797100 1.7 1027445
3 december, thu
thu323:00e5897100 1.5 1027340
02:00e5897100 2.0 1026346
05:00+1˚e4798100 0.3 1026221
08:00+1˚e34100100 0.6 1026132
11:00+2˚ese3599100 0.1 1026194
14:00+4˚se369599 0.1 1025368
17:00+3˚se469495 0.1 1025135
20:00+2˚ese349497 0.1 102692
4 december, fri
fri423:00+1˚se369646 0.0 1026142
02:00+1˚ese379650 0.0 1026158
05:00+1˚ese479392 0.0 1025220
08:00+1˚ese489580 0.0 1026256
11:00+3˚ese588990 0.0 1026479
14:00+3˚ese598695 0.0 1025533
17:00+3˚ese61186100 0.0 1025496
20:00+3˚ese6118599 0.0 1025540
5 december, sat
sat523:00+2˚ese5118975 0.0 1025453
02:00ese6129055 0.0 1026428
05:00ese6129146 0.0 1026409
08:00+1˚ese6108570 0.0 1027529
11:00+1˚ese6107797 0.0 1027462
14:00+3˚ese6107497 0.0 1027516
17:00+1˚ese6128088 0.0 1027433
20:00ese6128344 0.0 1028431